Weather History for Aspen, CO

Change the Weather History Date:

Friday, March 14, 2014

  Actual Average Record
Temperature  
Mean Temperature 36 °F 30 °F  
Max Temperature 49 °F 42 °F 57 °F (2007)
Min Temperature 23 °F 18 °F -4 °F (1988)
Degree Days  
Heating Degree Days 29 35  
Month to date heating degree days 445 516  
Since 1 July heating degree days 6576 6835  
Cooling Degree Days 0 0  
Month to date cooling degree days 0 0  
Year to date cooling degree days 0 0  
Moisture  
Dew Point 15 °F    
Average Humidity 49    
Maximum Humidity 75    
Minimum Humidity 22    
Precipitation  
Precipitation 0.00 in 0.04 in 0.49 in (2008)
Month to date precipitation 0.72 0.54  
Year to date precipitation 3.50 2.78  
Sea Level Pressure  
Sea Level Pressure 29.95 in    
Wind  
Wind Speed 7 mph (WSW)    
Max Wind Speed 12 mph    
Max Gust Speed 16 mph    
Visibility 10 miles    
Events      
T = Trace of Precipitation, MM = Missing Value Source: NWS Daily Summary

Daily Weather History Graph

Daily Weather History Graph

Search for Another Location

Airport:

Trip Planner

Search our weather history database for the weather conditions in past years. The results will help you decide how hot, cold, wet, or windy it might be!

Date:

Astronomy

Mar. 14, 2014 Rise Set
Actual Time 7:20 AM MDT 7:13 PM MDT
Civil Twilight 6:53 AM MDT 7:40 PM MDT
Nautical Twilight 6:22 AM MDT 8:11 PM MDT
Astronomical Twilight 5:51 AM MDT 8:42 PM MDT
Moon 5:38 PM MDT (3/14) 6:01 AM MDT (3/14)
Length of Visible Light 12h 46m
Length of Day
11h 53m
Waxing Gibbous, 96% of the Moon is Illuminated
Mar 14
Waxing Gibbous
Mar 16
Full
Mar 23
Last Quarter
Mar 30
New
Apr 7
First Quarter

Hourly Weather History & Observations

Time (MDT) Temp. Windchill Dew Point Humidity Pressure Visibility Wind Dir Wind Speed Gust Speed Precip Events Conditions
12:53 AM 28.9 °F 22.8 °F 21.0 °F 72% 29.90 in 10.0 mi SSW 5.8 mph - N/A   Clear
1:53 AM 27.0 °F 20.5 °F 19.0 °F 72% 29.93 in 10.0 mi SSW 5.8 mph - N/A   Clear
2:53 AM 28.0 °F 21.7 °F 18.0 °F 66% 29.91 in 10.0 mi SSW 5.8 mph - N/A   Clear
3:53 AM 26.1 °F 18.4 °F 17.1 °F 69% 29.94 in 10.0 mi South 6.9 mph - N/A   Mostly Cloudy
4:53 AM 27.0 °F 20.5 °F 17.1 °F 66% 29.94 in 10.0 mi SW 5.8 mph - N/A   Clear
5:53 AM 26.1 °F 17.6 °F 16.0 °F 66% 29.97 in 10.0 mi SSW 8.1 mph - N/A   Clear
6:53 AM 25.0 °F 16.3 °F 15.1 °F 66% 30.00 in 10.0 mi SW 8.1 mph - N/A   Clear
7:53 AM 25.0 °F 17.1 °F 14.0 °F 63% 30.04 in 10.0 mi SSW 6.9 mph - N/A   Clear
8:53 AM 28.9 °F 21.9 °F 14.0 °F 54% 30.03 in 10.0 mi South 6.9 mph - N/A   Clear
9:53 AM 33.1 °F 27.7 °F 16.0 °F 50% 30.02 in 10.0 mi South 5.8 mph - N/A   Clear
10:53 AM 39.0 °F 35.7 °F 15.1 °F 38% 29.99 in 10.0 mi NNW 4.6 mph - N/A   Clear
11:53 AM 43.0 °F 40.3 °F 14.0 °F 31% 29.96 in 10.0 mi NW 4.6 mph - N/A   Clear
12:53 PM 44.1 °F 39.5 °F 9.0 °F 24% 29.95 in 10.0 mi North 8.1 mph - N/A   Clear
1:53 PM 44.1 °F 40.1 °F 9.0 °F 24% 29.95 in 10.0 mi WNW 6.9 mph - N/A   Clear
2:53 PM 46.0 °F 41.0 °F 12.0 °F 25% 29.92 in 10.0 mi NNW 10.4 mph - N/A   Clear
3:53 PM 46.9 °F - 15.1 °F 28% 29.91 in 10.0 mi NNW 8.1 mph - N/A   Clear
4:53 PM 48.0 °F - 14.0 °F 26% 29.88 in 10.0 mi NW 6.9 mph - N/A   Clear
5:53 PM 46.9 °F - 14.0 °F 27% 29.88 in 10.0 mi NW 5.8 mph - N/A   Clear
6:53 PM 43.0 °F 40.3 °F 16.0 °F 34% 29.93 in 10.0 mi WNW 4.6 mph - N/A   Clear
7:53 PM 37.0 °F 31.6 °F 18.0 °F 46% 29.97 in 10.0 mi SSW 6.9 mph - N/A   Clear
8:53 PM 32.0 °F 23.6 °F 19.0 °F 59% 29.99 in 10.0 mi SSW 10.4 mph - N/A   Clear
9:53 PM 30.0 °F 21.7 °F 17.1 °F 59% 29.99 in 10.0 mi SSW 9.2 mph - N/A   Clear
10:53 PM 30.0 °F 22.4 °F 17.1 °F 59% 29.95 in 10.0 mi SW 8.1 mph - N/A   Clear
11:53 PM 28.0 °F 19.3 °F 15.1 °F 58% 29.93 in 10.0 mi SW 9.2 mph - N/A   Clear